Cloud_Cover
0 0 0 0 0 0 57 97 100 100 93 5 40 96 100 100 100 97 26 5 98 100 98 86 100 100 100 100 100 100 86 100 99 5 5 5 31 9 5 17 0 0 6 5 6 5 1 79 100
0 0 0 0 0 0 0 0 0 10 68 79 6 16 4 40 85 100 96 18 39 97 100 87 97 100 100 100 100 100 100 85 58 24 34 67 14 3 4 5 5 6 5 21 5 31 6 68 37
0 0 0 0 0 0 0 0 0 0 0 0 1 1 1 1 64 75 96 68 100 100 100 100 61 100 100 100 100 100 100 100 88 96 94 25 94 5 5 4 5 5 5 5 4 5 5 5 5
0 0 0 3 0 3 5 1 0 0 0 0 0 0 0 0 0 0 31 99 100 34 100 100 100 61 100 100 100 100 100 100 100 97 100 98 100 100 37 12 5 5 15 22 22 5 5 5 5
0 5 1 5 4 4 0 1 0 0 0 0 0 0 0 0 0 0 0 0 95 100 100 100 100 100 88 100 100 100 100 100 100 100 100 100 100 100 100 100 56 26 88 55 14 20 21 7 10
5 6 5 3 0 3 0 0 0 0 1 0 0 0 2 0 0 0 0 0 0 59 92 93 100 100 93 100 100 100 100 100 100 100 100 100 100 100 100 100 92 100 100 100 92 97 78 84 88
41 5 0 0 0 0 0 0 0 0 0 0 0 0 0 0 0 0 0 0 0 0 1 5 76 100 55 70 100 100 100 100 100 100 100 100 100 100 100 99 75 100 100 100 100 100 100 88 94
98 36 4 0 0 2 0 4 0 0 0 0 0 0 0 0 0 0 0 0 0 0 0 0 0 53 100 5 97 100 100 100 100 100 100 100 100 100 100 100 100 100 100 100 100 100 100 100 54
5 0 4 5 2 5 5 1 0 0 0 0 0 0 0 0 0 0 0 0 0 0 0 0 0 0 70 100 59 86 100 100 100 100 100 100 100 100 100 100 100 100 100 100 100 100 100 100 100
35 22 6 0 2 6 5 5 0 0 0 0 0 0 0 0 0 0 0 0 0 0 0 0 0 0 0 36 96 92 100 100 100 100 100 100 100 100 100 100 100 100 100 100 100 100 100 100 100
5 5 4 2 5 5 19 8 0 0 0 0 0 0 0 0 0 0 0 0 0 0 0 0 0 0 0 0 42 80 100 100 100 100 100 100 100 100 100 100 100 100 100 100 91 100 100 100 100
68 14 2 5 0 5 97 7 0 0 0 0 0 0 0 0 0 0 0 0 0 0 0 0 0 0 0 0 0 77 61 100 100 100 100 100 100 100 100 100 100 100 100 100 100 100 100 100 100
11 5 5 0 5 4 10 0 0 0 0 0 0 0 0 0 0 0 0 0 0 0 0 0 0 0 0 0 0 0 69 79 100 100 100 100 100 100 100 100 100 100 99 96 100 100 100 100 100
20 22 3 0 5 0 3 0 0 0 0 0 0 0 0 0 0 0 0 0 0 0 0 0 0 0 0 0 0 0 0 37 98 96 100 100 100 100 100 100 100 100 99 100 100 100 100 100 100
50 5 0 0 5 0 3 0 0 0 0 0 0 0 0 0 0 0 0 0 0 0 0 0 0 0 0 0 0 0 0 0 18 100 100 100 100 100 100 100 100 100 100 100 100 100 100 100 100
14 1 0 0 4 0 3 0 0 0 0 0 0 0 0 0 0 0 0 0 0 0 0 0 0 0 0 0 0 0 0 0 4 100 100 100 100 100 100 100 100 100 100 100 100 100 100 100 100
9 5 0 0 3 4 15 1 0 0 0 0 0 0 0 0 0 0 0 0 0 0 0 0 0 0 0 0 0 0 0 0 0 93 95 100 100 100 100 100 100 100 100 100 100 100 100 100 100
5 4 2 0 4 4 28 0 0 0 0 0 0 0 0 0 0 0 0 0 0 0 0 0 0 0 0 0 0 0 0 0 0 29 100 99 100 100 100 100 100 100 100 100 100 100 82 98 100
5 0 3 0 1 46 44 0 0 0 0 0 0 0 1 5 5 4 5 43 76 16 4 0 0 0 0 0 0 0 0 0 0 2 100 100 100 100 100 100 100 100 100 100 100 100 96 100 100
5 1 1 2 2 20 75 0 0 0 0 0 0 1 16 100 100 100 93 64 100 82 5 0 0 0 0 0 0 0 0 0 0 0 81 100 100 100 100 100 100 100 100 100 100 100 97 84 55
63 5 0 4 0 5 32 7 0 0 0 0 0 5 17 34 54 77 100 81 51 72 96 5 1 0 0 0 0 0 0 0 0 0 9 100 100 100 100 100 100 100 100 100 100 100 100 100 100
99 5 0 3 4 5 6 76 0 0 0 0 0 5 35 94 92 6 72 80 74 5 0 5 4 0 0 0 0 0 0 0 0 0 0 100 100 100 100 100 100 100 100 100 100 100 100 60 45
5 5 3 0 5 4 22 98 0 0 0 0 0 0 17 100 92 36 5 62 5 61 99 16 0 0 0 0 0 0 0 0 0 0 0 21 100 100 100 100 100 100 100 100 100 100 100 84 93
5 5 5 5 4 2 22 96 1 0 0 0 0 0 4 5 16 40 56 87 98 84 90 9 96 4 0 0 0 0 0 0 0 0 4 66 100 100 100 100 100 100 100 100 100 100 100 100 98
0 4 2 4 0 2 4 85 17 1 0 0 0 0 0 5 19 94 100 100 100 100 100 100 80 45 4 0 0 0 0 0 0 0 0 100 100 100 100 100 100 100 100 100 100 100 100 100 99
2 3 0 0 0 0 2 76 100 5 0 0 0 0 4 5 98 98 99 100 100 100 100 100 100 98 60 1 0 0 0 0 0 0 0 19 100 100 100 100 100 100 100 100 100 100 100 100 100
0 3 0 11 55 66 1 10 96 3 5 0 0 0 2 5 98 100 91 65 82 100 100 100 100 92 68 5 5 4 0 0 0 0 0 0 100 100 100 100 100 100 100 100 100 100 100 100 100
0 0 0 26 0 0 4 0 88 42 4 2 0 0 4 66 100 100 98 88 100 100 100 100 100 100 61 67 5 9 5 5 2 0 0 0 94 100 100 100 100 100 100 100 100 100 100 100 100
9 5 4 2 2 2 17 2 5 100 1 5 0 0 1 79 100 100 100 100 100 100 91 96 100 99 98 5 14 60 5 5 5 5 0 0 5 100 100 100 100 100 100 100 100 100 100 100 100
4 0 2 5 1 17 19 17 0 94 5 5 0 0 1 100 100 100 100 100 100 100 98 55 100 84 96 84 84 84 5 8 84 5 2 0 0 100 100 100 100 100 100 100 100 100 100 100 100